[[{"header":{"parameterUnit":"m.s-1","parameterCategory":1,"la1":30.2991,"la2":30.254,"lo1":-89.0895,"lo2":-89.0444,"dy":0.0017,"dx":0.0017,"nx":28,"ny":28,"refTime":"2025-03-06T09:00:00:Z","depth":0,"parameterNumber":2,"parameterNumberName":"U-component_of_WINDS"},"data":[0,0,0,0,0,0,0,0,0,0,0,0,0,0,0,0,0,0,0,0,0,0,0,0,0,0,0,0,0,0,0,0,0,0,0,0,0,0,0,0,0,0,0,0,0,0,0,0,0,0,0,0,0,0,0,0,0,0,-1.5398,-1.5398,0,-1.5407,-1.5407,-1.5407,-1.5404,-1.5404,-1.5404,-1.5403,-1.5411,-1.5412,-1.5412,0,0,0,0,0,0,0,0,0,0,0,0,0,-1.5377,-1.5377,-1.5398,-1.5398,-1.5399,-1.5407,-1.5407,-1.5407,-1.5404,-1.5404,-1.5404,-1.5403,-1.5411,-1.5412,-1.5412,0,0,0,0,0,0,0,0,0,0,0,0,0,-1.5386,-1.5378,-1.5398,-1.5398,-1.5398,-1.5407,-1.5407,-1.5407,-1.5404,-1.5404,-1.5403,-1.5403,-1.5411,-1.5411,-1.5412,-1.5422,0,0,-1.5414,-1.5414,0,0,0,0,0,0,0,0,-1.5386,-1.5387,-1.5398,-1.5398,-1.5398,-1.5404,-1.5403,-1.5412,-1.5404,-1.5402,-1.5403,-1.5403,-1.5409,-1.541,-1.5412,-1.5422,-1.5422,-1.5414,-1.5414,-1.5415,-1.5415,0,0,0,0,0,0,0,-1.5385,-1.5386,-1.5402,-1.5398,-1.5398,-1.5397,-1.5398,-1.5404,-1.5407,-1.5402,-1.5402,-1.5403,-1.5409,-1.5411,-1.5412,-1.5423,-1.5414,-1.5414,-1.5415,-1.5415,-1.544,-1.544,0,0,0,0,0,0,-1.5384,-1.5386,-1.5401,-1.5402,-1.5391,-1.5397,-1.5399,-1.5402,-1.5407,-1.5407,-1.5403,-1.5403,-1.5411,-1.5411,-1.5412,-1.5423,-1.5415,-1.5415,-1.5415,-1.544,-1.544,-1.544,0,0,0,0,0,0,-1.5384,-1.5386,-1.5401,-1.5394,-1.5396,-1.5398,-1.5403,-1.5403,-1.5405,-1.5408,-1.5408,-1.5405,-1.541,-1.5412,-1.5419,-1.5424,-1.5415,-1.5416,-1.5439,-1.544,-1.544,-1.5446,0,0,0,0,0,0,-1.5383,-1.5386,-1.539,-1.5394,-1.5396,-1.5408,-1.5403,-1.5403,-1.5406,-1.5406,-1.541,-1.541,-1.541,-1.5418,-1.542,-1.5424,-1.5416,-1.5439,-1.544,-1.544,-1.5445,-1.5446,-1.5447,0,0,0,0,0,-1.5383,-1.5391,-1.539,-1.5392,-1.5401,-1.5409,-1.541,-1.541,-1.5407,-1.5411,-1.5412,-1.541,-1.5423,-1.5419,-1.5421,-1.5425,-1.5439,-1.5439,-1.544,-1.5445,-1.5446,-1.5447,0,0,0,0,0,0,-1.5387,-1.5391,-1.5391,-1.54,-1.5404,-1.5408,-1.5413,-1.5412,-1.5416,-1.5415,-1.5415,-1.5416,-1.5424,-1.5426,-1.5421,-1.5435,-1.543,-1.5431,-1.5433,-1.5435,-1.5436,-1.5435,-1.5417,0,0,0,0,0,-1.5389,-1.5395,-1.5398,-1.5407,-1.5409,-1.541,-1.5414,-1.5414,-1.5417,-1.5419,-1.5421,-1.5424,-1.5429,-1.5432,-1.5436,-1.5446,-1.5446,-1.5449,-1.5451,-1.5451,-1.5452,-1.5456,-1.5458,-1.5443,-1.5443,-1.5443,0,0,-1.5393,-1.5396,-1.54,-1.5407,-1.541,-1.5416,-1.5412,-1.5418,-1.5422,-1.5419,-1.5427,-1.5428,-1.5432,-1.544,-1.5444,-1.5442,-1.5456,-1.5452,-1.5453,-1.5453,-1.5457,-1.5459,-1.546,-1.5443,-1.5443,-1.5443,0,0,-1.5403,-1.5407,-1.5414,-1.5417,-1.5421,-1.5422,-1.5424,-1.5428,-1.5429,-1.5437,-1.5435,-1.5439,-1.5448,-1.545,-1.5453,-1.5464,-1.5462,-1.5465,-1.547,-1.5475,-1.5476,-1.5477,-1.548,-1.5481,-1.5466,-1.5466,-1.5466,0,-1.5408,-1.5416,-1.5417,-1.5424,-1.5427,-1.5425,-1.5432,-1.5435,-1.544,-1.5442,-1.544,-1.545,-1.5452,-1.5461,-1.5464,-1.5466,-1.5467,-1.5464,-1.5476,-1.5477,-1.5478,-1.5481,-1.5482,-1.5466,-1.5466,-1.5466,-1.5466,0,-1.5421,-1.5427,-1.5432,-1.5438,-1.5442,-1.5448,-1.545,-1.5453,-1.5453,-1.5454,-1.5461,-1.5464,-1.5469,-1.5471,-1.5471,-1.5479,-1.5478,-1.5476,-1.5471,-1.5479,-1.5482,-1.5484,-1.5467,-1.5467,-1.5467,-1.5467,0,0,-1.5434,-1.544,-1.5442,-1.5444,-1.5449,-1.5454,-1.546,-1.5465,-1.5467,-1.5472,-1.5476,-1.5483,-1.5481,-1.5484,-1.5484,-1.5487,-1.5495,-1.5485,-1.5485,-1.5486,-1.5504,-1.5505,-1.5507,-1.5494,-1.5494,-1.5495,-1.5504,0,-1.5444,-1.5455,-1.5456,-1.5466,-1.5471,-1.547,-1.5475,-1.5478,-1.548,-1.5484,-1.5485,-1.549,-1.5487,-1.5489,-1.5492,-1.5494,-1.5499,-1.5493,-1.5498,-1.5498,-1.5496,-1.5508,-1.551,-1.5518,-1.5505,-1.5505,-1.5505,0,-1.5457,-1.5462,-1.5472,-1.5476,-1.5478,-1.5483,-1.5487,-1.5492,-1.5495,-1.5496,-1.5499,-1.5498,-1.5504,-1.55,-1.5507,-1.5503,-1.5505,-1.5506,-1.5507,-1.5506,-1.5502,-1.5508,-1.5521,-1.5522,-1.5507,-1.5507,-1.5507,0,-1.5464,-1.5473,-1.548,-1.5483,-1.5487,-1.5491,-1.5493,-1.5496,-1.5499,-1.5503,-1.5504,-1.5509,-1.5511,-1.5514,-1.5515,-1.5512,-1.5522,-1.5518,-1.5522,-1.5522,-1.5524,-1.5523,-1.5536,-1.5526,-1.5526,-1.5526,-1.5526,0,-1.5475,-1.5481,-1.5484,-1.5488,-1.5495,-1.5496,-1.5502,-1.5504,-1.5507,-1.5511,-1.551,-1.5514,-1.5515,-1.5519,-1.5519,-1.5525,-1.5526,-1.5526,-1.5526,-1.5526,-1.5526,-1.5527,-1.5526,-1.5526,-1.5526,-1.5526,-1.5526,0,-1.5484,-1.5486,-1.5494,-1.5498,-1.5499,-1.5503,-1.5507,-1.551,-1.5512,-1.5517,-1.5518,-1.552,-1.5525,-1.5526,-1.5531,-1.5531,-1.5538,-1.5537,-1.5537,-1.5536,-1.554,-1.554,-1.5554,-1.5555,-1.5545,-1.5545,-1.5545,0,-1.549,-1.5495,-1.55,-1.5503,-1.5505,-1.551,-1.5513,-1.5514,-1.5517,-1.5521,-1.5524,-1.5529,-1.5532,-1.554,-1.5541,-1.5545,-1.5544,-1.5549,-1.5545,-1.5544,-1.5544,-1.5543,-1.5543,-1.555,-1.555,-1.555,-1.555,0,-1.5501,-1.5502,-1.5507,-1.5511,-1.5515,-1.5519,-1.5522,-1.5525,-1.5526,-1.5529,-1.5534,-1.5537,-1.5543,-1.5547,-1.5551,-1.5552,-1.5551,-1.5551,-1.5552,-1.5552,-1.5551,-1.5551,-1.5538,-1.5551,-1.5551,-1.5551,-1.5551,-1.5551,-1.5509,-1.5513,-1.5516,-1.5521,-1.5524,-1.5527,-1.5531,-1.5533,-1.5537,-1.5542,-1.5542,-1.5547,-1.555,-1.5556,-1.5557,-1.5561,-1.5559,-1.5561,-1.5561,-1.5562,-1.5562,-1.5551,-1.5562,-1.5562,-1.5562,-1.5562,-1.5562,0,-1.5519,-1.5521,-1.5526,-1.5531,-1.5535,-1.5534,-1.5538,-1.5541,-1.5545,-1.5548,-1.5552,-1.5557,-1.5561,-1.5563,-1.5567,-1.557,-1.5569,-1.5571,-1.557,-1.5571,-1.5563,-1.5562,-1.5571,-1.5571,-1.5571,-1.5571,-1.5571,-1.5571,-1.5524,-1.5531,-1.5532,-1.554,-1.5542,-1.5547,-1.5549,-1.5552,-1.5555,-1.5561,-1.5564,-1.5566,-1.5568,-1.5572,-1.5576,-1.5576,-1.5578,-1.5579,-1.5579,-1.5572,-1.5571,-1.557,-1.5569,-1.558,-1.558,-1.5586,-1.5586,-1.5586]},{"header":{"parameterUnit":"m.s-1","parameterCategory":1,"la1":30.2991,"la2":30.254,"lo1":-89.0895,"lo2":-89.0444,"dy":0.0017,"dx":0.0017,"nx":28,"ny":28,"refTime":"2025-03-06T09:00:00:Z","depth":0,"parameterNumber":3,"parameterNumberName":"V-component_of_WINDS"},"data":[0,0,0,0,0,0,0,0,0,0,0,0,0,0,0,0,0,0,0,0,0,0,0,0,0,0,0,0,0,0,0,0,0,0,0,0,0,0,0,0,0,0,0,0,0,0,0,0,0,0,0,0,0,0,0,0,0,0,4.9337,4.9339,0,4.9473,4.9475,4.9476,4.9496,4.9495,4.9494,4.9493,4.9628,4.9633,4.9637,0,0,0,0,0,0,0,0,0,0,0,0,0,4.9093,4.9098,4.9337,4.9339,4.9341,4.9473,4.9475,4.9477,4.9497,4.9495,4.9494,4.9492,4.9626,4.9632,4.9638,0,0,0,0,0,0,0,0,0,0,0,0,0,4.9211,4.9099,4.9337,4.9367,4.9371,4.9473,4.9475,4.9477,4.9497,4.9495,4.9493,4.9491,4.9625,4.9631,4.9638,4.9719,0,0,4.966,4.9663,0,0,0,0,0,0,0,0,4.9204,4.922,4.9361,4.9365,4.9369,4.9466,4.9438,4.9558,4.9497,4.9449,4.9493,4.9491,4.9575,4.9586,4.9616,4.9725,4.9731,4.9661,4.9665,4.9668,4.967,0,0,0,0,0,0,0,4.9196,4.9214,4.9391,4.9363,4.9368,4.9373,4.9387,4.9461,4.952,4.9453,4.9455,4.9471,4.9577,4.9609,4.9619,4.9733,4.9661,4.9667,4.9671,4.9674,4.9919,4.9921,0,0,0,0,0,0,4.9183,4.9207,4.9387,4.9395,4.9281,4.9378,4.9395,4.9437,4.952,4.9531,4.9472,4.9471,4.9598,4.9611,4.9624,4.9726,4.9668,4.9675,4.9679,4.9917,4.9919,4.9922,0,0,0,0,0,0,4.9178,4.9199,4.9381,4.9302,4.9325,4.9385,4.9431,4.944,4.9472,4.9534,4.9545,4.9494,4.9597,4.9614,4.9696,4.9731,4.9678,4.9684,4.9914,4.9917,4.992,4.993,0,0,0,0,0,0,4.9171,4.9197,4.9228,4.9302,4.933,4.9452,4.9434,4.9444,4.9485,4.9485,4.9557,4.9568,4.9597,4.9686,4.9703,4.974,4.969,4.9911,4.9915,4.9919,4.9927,4.9933,4.9939,0,0,0,0,0,4.9162,4.9224,4.923,4.9251,4.937,4.9454,4.9469,4.9502,4.9487,4.952,4.956,4.9565,4.9724,4.9694,4.9714,4.9753,4.9909,4.9914,4.9919,4.9924,4.9932,4.9939,0,0,0,0,0,0,4.9151,4.9234,4.9242,4.933,4.9385,4.9457,4.9499,4.9509,4.9568,4.9566,4.9603,4.962,4.9701,4.9735,4.97,4.9837,4.9815,4.9825,4.9812,4.982,4.9826,4.9817,4.9696,0,0,0,0,0,4.9159,4.922,4.9289,4.936,4.9388,4.9439,4.9476,4.9497,4.9555,4.9578,4.9624,4.968,4.9743,4.9783,4.9844,4.9931,4.9949,4.9969,4.9974,4.9979,4.9987,5.0039,5.0049,4.9938,4.9938,4.9938,0,0,4.9175,4.9229,4.9265,4.936,4.9405,4.9468,4.9458,4.9524,4.9572,4.9588,4.967,4.9706,4.977,4.9856,4.9896,4.9887,5.0022,4.9985,4.9989,4.9995,5.0045,5.0056,5.0065,4.9942,4.9941,4.994,0,0,4.9239,4.9284,4.935,4.9397,4.9466,4.9499,4.9515,4.9587,4.9612,4.9695,4.971,4.9765,4.9872,4.9918,4.9955,5.0039,5.0047,5.0057,5.0089,5.0139,5.0148,5.0156,5.0188,5.0199,5.0065,5.0065,5.0065,0,4.9251,4.9347,4.9382,4.945,4.9492,4.9511,4.9579,4.9621,4.9706,4.9734,4.9723,4.9859,4.9903,5.0002,5.0023,5.0052,5.0072,5.005,5.0144,5.0152,5.016,5.0192,5.0203,5.0066,5.0066,5.0066,5.0066,0,4.936,4.9426,4.9471,4.9556,4.9602,4.9669,4.9714,4.9757,4.9775,4.9809,4.9895,4.9949,5.0023,5.0047,5.0063,5.0149,5.0142,5.0136,5.0116,5.0172,5.0202,5.0214,5.0067,5.0067,5.0067,5.0066,0,0,4.9419,4.9524,4.954,4.958,4.9659,4.9711,4.9779,4.9853,4.989,4.9948,5.0007,5.0098,5.0095,5.0137,5.0159,5.0203,5.0269,5.0193,5.0195,5.0207,5.037,5.0375,5.0388,5.0274,5.0276,5.0278,5.0365,0,4.9494,4.9618,4.9653,4.9757,4.9821,4.9841,4.99,4.9955,4.9989,5.0048,5.0085,5.015,5.014,5.0166,5.021,5.0252,5.0302,5.0245,5.033,5.0333,5.0316,5.0404,5.0409,5.0488,5.0377,5.0379,5.038,0,4.9598,4.9661,4.9772,4.9846,4.9874,4.9927,4.9999,5.0054,5.0117,5.0139,5.0188,5.0206,5.0279,5.0253,5.0353,5.0314,5.0351,5.0376,5.038,5.0391,5.0361,5.0419,5.0514,5.0527,5.0399,5.0397,5.0396,0,4.9634,4.9746,4.9829,4.9861,4.9948,4.9986,5.0023,5.0085,5.0128,5.019,5.0219,5.0287,5.0326,5.0379,5.0416,5.0393,5.0514,5.0491,5.0536,5.0535,5.0562,5.056,5.0667,5.0581,5.0581,5.0581,5.058,0,4.9715,4.9783,4.9847,4.9897,4.9975,5.0013,5.0089,5.0127,5.0182,5.024,5.026,5.0315,5.0359,5.042,5.0448,5.0529,5.0545,5.0566,5.0573,5.0566,5.0564,5.0592,5.0588,5.0584,5.0583,5.0583,5.0582,0,4.9769,4.9814,4.9906,4.9981,5.0002,5.0056,5.0121,5.0171,5.0206,5.0281,5.03,5.0356,5.0429,5.047,5.0561,5.058,5.0671,5.0674,5.065,5.0654,5.0698,5.0694,5.0828,5.0849,5.0747,5.0748,5.0749,0,4.9819,4.9873,4.9955,4.9997,5.0036,5.0102,5.0147,5.0187,5.0233,5.0311,5.0352,5.0426,5.0488,5.0603,5.0651,5.0721,5.0728,5.077,5.0738,5.073,5.0732,5.0729,5.0736,5.0776,5.0777,5.0778,5.0778,0,4.9904,4.9925,4.9989,5.0063,5.0117,5.0176,5.0235,5.0267,5.0317,5.0368,5.0444,5.0492,5.0586,5.066,5.0735,5.0773,5.0785,5.0788,5.0802,5.0796,5.0782,5.0793,5.0668,5.0785,5.0784,5.0784,5.0783,5.0783,4.996,5.001,5.0077,5.0149,5.0198,5.0253,5.0305,5.0348,5.0412,5.0494,5.0513,5.0593,5.0656,5.0758,5.0798,5.0862,5.0854,5.0875,5.088,5.0885,5.0889,5.077,5.0875,5.0875,5.0874,5.0874,5.0874,0,5.0049,5.0093,5.0159,5.0243,5.03,5.0307,5.0373,5.042,5.0491,5.0549,5.0611,5.0699,5.0771,5.0826,5.09,5.0941,5.0948,5.0959,5.0958,5.0967,5.0889,5.0871,5.0952,5.0952,5.0952,5.0952,5.0952,5.0952,5.0102,5.0187,5.0216,5.0326,5.037,5.045,5.0488,5.0539,5.0587,5.0685,5.0746,5.0781,5.0839,5.0918,5.0985,5.0999,5.1027,5.1038,5.1053,5.098,5.0972,5.0964,5.0947,5.1043,5.1043,5.1126,5.1126,5.1127]}]]